Regional Weather Roundup
Issued by NWS

Home | Current Version | Previous Version | Text Only | Print | Product List | Glossary On
Versions: 1 2 3 4 5 6 7 8 9 10 11 12 13 14 15 16 17 18 19 20 21 22 23 24 25 26 27 28 29 30 31 32 33 34 35 36 37 38 39 40 41 42 43 44 45 46 47 48 49 50
000
ASUS43 KLSX 050507
RWRMO

WEATHER SUMMARY FOR MISSOURI
NATIONAL WEATHER SERVICE SPRINGFIELD MO
1200 AM CDT SUN JUL 05 2015

NOTE: "FAIR" INDICATES FEW OR NO CLOUDS BELOW 12,000 FEET WITH NO
       SIGNIFICANT WEATHER AND/OR OBSTRUCTIONS TO VISIBILITY.
       CURRENT SKY AND/OR WEATHER CONDITIONS ARE NOT AVAILABLE FOR
       CHILLICOTHE AND FARMINGTON.

MOZ001>031-035>038-043-044-053-054-050600-
...NORTHERN AND WESTERN MISSOURI...

CITY           SKY/WX    TMP DP  RH WIND       PRES   REMARKS
KANSAS CTY INT CLEAR     68  63  84 SE7       30.00R
KANSAS C DTWN  CLEAR     76  64  66 S7        29.99R
LEE`S SUMMIT   CLEAR     72  64  76 S3        30.01S HAZE
ST JOSEPH      CLEAR     70  64  81 SE6       29.99R
CHILLICOTHE      N/A     67  64  90 CALM      30.01R
KIRKSVILLE     CLEAR     64  61  90 CALM      30.03R

$$
MOZ066>068-077>081-088>096-101>105-050600-
...SOUTHWEST MISSOURI...

CITY           SKY/WX    TMP DP  RH WIND       PRES   REMARKS
SPRINGFIELD    PTCLDY    73  68  84 SE8       30.02R HAZE
JOPLIN         FAIR      73  67  81 SE3       30.00R

$$
MOZ032>034-039>042-045>050-055>058-069>072-050600-
...CENTRAL MISSOURI...

CITY           SKY/WX    TMP DP  RH WIND       PRES   REMARKS
COLUMBIA       CLEAR     70  65  84 SE6       30.03R
JEFFERSON CITY CLEAR     69  66  90 SE3       30.02R
ROLLA          PTCLDY    69  65  86 E8        30.03S
SEDALIA        CLEAR     71  65  81 SE5       30.02S
WHITEMAN AFB   CLEAR     69  65  86 SE5       29.99S
WARRENSBURG    CLEAR     68  63  83 SE3       30.00R
OSAGE BEACH    PTCLDY    72  64  78 CALM      30.02S

$$
MOZ051-052-059>065-050600-
...EAST CENTRAL MISSOURI...

CITY           SKY/WX    TMP DP  RH WIND       PRES   REMARKS
ST LOUIS INTL  CLEAR     72  63  73 SE5       30.04S HAZE
SPIRIT OF STL  CLEAR     68  65  90 CALM      30.02R FOG
ST CHARLES     CLEAR     70  66  87 CALM      30.02R

$$
MOZ072>076-082>087-097>100-106>115-050600-
...SOUTH CENTRAL AND SOUTHEAST MISSOURI...

CITY           SKY/WX    TMP DP  RH WIND       PRES   REMARKS
CAPE GIRARDEAU PTCLDY    70  69  97 CALM      30.03S
FARMINGTON     CLEAR     68  64  88 CALM      30.09R
POPLAR BLUFF   PTCLDY    72  70  93 CALM      30.02S FOG
WEST PLAINS    PTCLDY    71  68  90 SE3       30.06S

$$



USA.gov is the U.S. government's official web portal to all federal, state and local government web resources and services.